Location: Newark
(52.3500°N, 175.9667°E)
Time: 06:35:49
(UTC+00:00)

S-56A Canister/Altair - Pass Details

Date: 19 April 2021
Orbit: 631 x 2501 km, 38.9° (Epoch: 12 May)

Event Time Altitude Azimuth Distance (km) Brightness Sun altitude
Rises 12:16:27 0° 227° (SW) 4,200 - -26.3°
Reaches altitude 10° 12:20:39 10° 210° (SSW) 2,875 - -26.3°
Maximum altitude 12:24:52 18° 171° (S) 2,047 - -26.3°
Drops below altitude 10° 12:28:21 10° 129° (SE) 2,305 - -26.2°
Sets 12:31:13 0° 109° (ESE) 3,070 - -26.2°
